Hourly Data Report for December 12, 2017

TORONTO CITY
ONTARIO

43°40'00.000" N
79°24'00.000" W
112.50 m
6158355
71508
XTO

Download Data

Hourly Data (December 2017)
Hourly Data Report for December 12, 2017
TIME
LST
Temp Definition
°C
Dew Point Definition
°C
Rel Hum Definition
%
Precip. Amount Definition
mm

Wind Dir Definition
10's deg

Wind Spd Definition
km/h
Visibility Definition
km
Stn Press Definition
kPa
Hmdx Definition


Wind Chill Definition


Weather Definition


00:00 -1.8 -3.6 88 0.2 LegendMM LegendMM   99.19     LegendNANA
01:00 -2.7 -4.0 91 0.6 LegendMM LegendMM   99.04     LegendNANA
02:00 -2.1 -3.3 91 0.5 LegendMM LegendMM   98.90     LegendNANA
03:00 -1.6 -2.6 93 0.7 LegendMM LegendMM   98.82     LegendNANA
04:00 -1.5 -2.6 92 0.6 LegendMM LegendMM   98.71     LegendNANA
05:00 -1.8 -3.0 91 0.7 LegendMM LegendMM   98.66     LegendNANA
06:00 -1.9 -3.3 90 0.2 LegendMM LegendMM   98.60     LegendNANA
07:00 -2.2 -3.7 90 0.2 LegendMM LegendMM   98.60     LegendNANA
08:00 -2.0 -3.2 91 0.5 LegendMM LegendMM   98.63     LegendNANA
09:00 -2.0 -4.6 82 0.0 LegendMM LegendMM   98.63     LegendNANA
10:00 -2.3 -6.2 75 0.2 LegendMM LegendMM   98.64     LegendNANA
11:00 -3.3 -8.4 68 0.0 LegendMM LegendMM   98.69     LegendNANA
12:00 -3.6 -9.8 62 0.0 LegendMM LegendMM   98.72     LegendNANA
13:00 -4.1 -11.9 55 0.0 LegendMM LegendMM   98.76     LegendNANA
14:00 -5.0 -13.0 53 0.0 LegendMM LegendMM   98.83     LegendNANA
15:00 -6.0 -11.7 64 0.0 LegendMM LegendMM   98.88     LegendNANA
16:00 -6.6 -13.9 56 0.0 LegendMM LegendMM   98.91     LegendNANA
17:00 -7.7 -13.5 63 0.0 LegendMM LegendMM   98.95     LegendNANA
18:00 -8.5 -15.2 58 0.0 LegendMM LegendMM   98.98     LegendNANA
19:00 -8.7 -15.3 59 0.0 LegendMM LegendMM   98.98     LegendNANA
20:00 -8.8 -15.5 58 0.0 LegendMM LegendMM   99.02     LegendNANA
21:00 -9.3 -15.8 59 0.0 LegendMM LegendMM   99.00     LegendNANA
22:00 -9.8 -15.6 62 0.0 LegendMM LegendMM   98.98     LegendNANA
23:00 -10.1 -14.5 70 0.0 LegendMM LegendMM   98.97     LegendNANA

Notes on Data Quality.

Legend

  • E = Estimated
  • M = Missing
  • NA = Not Available*
  • [empty] = Indicates an unobserved value
Date modified: